Middleton, WI (53562)

2:51 AM CST on February 14, 2016 (GMT -0600)
Sak's Woods, Middleton | | Change Station
CLOSE
Current Station
Personal Weather Station
Location: Middleton, WI
Elevation: 948 ft
Nearby Weather Stations
Active Advisory: Winter Weather Advisory

Elev 948 ft 43.10 °N, 89.50 °W | Updated 13 minutes ago

Clear
Clear
5.5 °F
Feels Like 6 °F
N
1.1
Wind Variable Wind from West

Today
High -- | Low -- °F
--% Chance of Precip.
Yesterday
High -- | Low -- °F
Precip. -- in
Pressure 30.37 in
Visibility 10.0 miles
Clouds Overcast 12000 ft
Windchill 6 °F
Dew Point -2 °F
Humidity 69%
Rainfall 0.00 in
Snow Depth Not available.
6:57 AM 5:27 PM
Waxing Crescent, 39% visible
METAR KC29 140835Z AUTO 13006KT 10SM OVC120 M13/M19 A3037 RMK AO1 T11321191
Pressure 30.37 in
Visibility 10.0 miles
Clouds Overcast 12000 ft
Windchill 6 °F
Dew Point -2 °F
Humidity 69%
Rainfall 0.00 in
Snow Depth Not available.
6:57 AM 5:27 PM
Waxing Crescent, 39% visible
METAR KC29 140835Z AUTO 13006KT 10SM OVC120 M13/M19 A3037 RMK AO1 T11321191

10-Day Weather Forecast

Almanac

Astronomy

Feb. 14, 2016 Rise Set
Actual Time
Civil Twilight
Nautical Twilight
Astronomical Twilight
Moon
Length of Visible Light
Length of Day
Tomorrow will be .
, % of the Moon is Illuminated

Today's Extremes

State Highs State Lows

Community

WunderPhotos

Upload Photos

1,892,763 photos uploaded!

WunderBlog® & News

Nearby

Air Quality

  Air Quality AQ Index Pollutant
Not available.

Snow Depth

Station Depth Elevation

Earthquake Activity

City Distance Mag. Time & Date
Minimum magnitude displayed is 2.5.

Coastal Water Temperatures

Place Temperature

Stations

Nearby Weather Stations

Station Location Temp. Windchill Dew Point Humidity Wind Precip. Elev Updated Type
                   

Watches & Warnings

Winter Weather Advisory
Issued: 8:52 PM CST Feb. 13, 2016 – National Weather Service

... Winter Weather Advisory remains in effect from 6 am to 9 PM
CST Sunday...

A Winter Weather Advisory remains in effect from 6 am to 9 PM CST
Sunday.

* Timing... snow will start early to mid morning Sunday and
continue into Sunday evening.

* Snow accumulations... 3 to 4 inches.

* Winds... southeast 10 to 15 mph.

* Impacts... snow accumulation on untreated roads or surfaces
will create difficult travel conditions Sunday into Sunday
evening.

A Winter Weather Advisory for snow means that periods of snow
will cause primarily travel difficulties. Be prepared for snow
covered roads and limited visibilities... and use caution while
driving.



Hentz